Belgica — ORGQ — position and weather

sailwx.info

Track history (hours):
 
Tides and Currents Weather Stations Pressure Air Temp Water Temp Dewpoint Dewpoint Depression Visibility Wind Speed Wind Dir Waves Ship Positions

Oceanographic research ship Belgica (Belgium)

Detailed information on ship capabilities available from University of Delaware's Ocean Information Center.

Last reported at 2018-Jun-23 14:56 UTC. Time now 2018-Jun-23 23:22 UTC.
Position N 55°33' E 015°14'.

Length 51 m; draft 4.7 m.

MMSI: 205218000.

Date/timePositionNaut miles runAvg speedWind from/ knotsBaromVisibWave heightAir tempDewpointWater temp
2018-Jun-23 14:56N 55°33' E 015°14'7 9.8
2018-Jun-23 14:11N 55°29' E 015°02'4 9.7
2018-Jun-23 13:44N 55°28' E 014°55'3 9.7
2018-Jun-23 13:28N 55°27' E 014°50'5 9.6
2018-Jun-23 12:58N 55°25' E 014°43'6 9.5
2018-Jun-23 12:23N 55°22' E 014°35'4 9.9
2018-Jun-23 11:59N 55°19' E 014°31'5 9.6
2018-Jun-23 11:29N 55°15' E 014°26'5 9.6
2018-Jun-23 10:57N 55°11' E 014°21'4 9.6
2018-Jun-23 10:30N 55°07' E 014°17'5 9.5
2018-Jun-23 10:00N 55°03' E 014°12'12 9.2
2018-Jun-23 08:44N 54°59' E 013°53'61 9.4
2018-Jun-23 02:13N 54°32' E 012°18'3 9.6
2018-Jun-23 01:55N 54°29' E 012°16'4 9.7
2018-Jun-23 01:29N 54°26' E 012°12'4 8.4
2018-Jun-23 01:00N 54°24' E 012°06'17 9.8
2018-Jun-22 23:19N 54°27' E 011°38'611.0
2018-Jun-22 22:45N 54°30' E 011°29'511.4
2018-Jun-22 22:20N 54°32' E 011°21'412.3
2018-Jun-22 22:00N 54°34' E 011°15'612.0
2018-Jun-22 21:30N 54°35' E 011°05'510.7
2018-Jun-22 21:00N 54°34' E 010°55'510.2
2018-Jun-22 20:30N 54°34' E 010°46'5 9.9
2018-Jun-22 20:00N 54°33' E 010°38'54 7.1
2018-Jun-22 12:27N 54°06' E 009°20'3 6.7
2018-Jun-22 11:59N 54°03' E 009°18'1 2.6
2018-Jun-22 11:30N 54°01' E 009°18'4 7.6
2018-Jun-22 11:00N 53°58' E 009°15'4 8.6
2018-Jun-22 10:30N 53°55' E 009°10'1 3.0
2018-Jun-22 10:00N 53°53' E 009°09'2 3.5
2018-Jun-22 09:30N 53°53' E 009°06'4 7.2
2018-Jun-22 09:00N 53°51' E 009°01'510.0
2018-Jun-22 08:30N 53°50' E 008°52'5 9.6
2018-Jun-22 08:00N 53°51' E 008°44'510.4
2018-Jun-22 07:30N 53°56' E 008°40'5 9.7
2018-Jun-22 06:57N 53°58' E 008°31'4 8.2
2018-Jun-22 06:30N 53°59' E 008°25'4 7.1
2018-Jun-22 06:00N 53°59' E 008°19'4 7.1
2018-Jun-22 05:30N 53°59' E 008°13'4 7.0
2018-Jun-22 05:00N 53°59' E 008°07'4 7.0
2018-Jun-22 04:29N 53°58' E 008°01'4 7.2
2018-Jun-22 04:00N 53°57' E 007°56'4 7.4
2018-Jun-22 03:29N 53°56' E 007°49'69 6.7
2018-Jun-21 17:13N 53°39' E 005°57'2 7.0
2018-Jun-21 17:00N 53°39' E 005°54'3 6.7
2018-Jun-21 16:31N 53°38' E 005°49'3 6.7
2018-Jun-21 16:00N 53°37' E 005°44'3 6.9
2018-Jun-21 15:30N 53°35' E 005°38'4 7.2
2018-Jun-21 14:57N 53°34' E 005°32'3 7.4
2018-Jun-21 14:29N 53°33' E 005°26'4 7.5
2018-Jun-21 14:00N 53°32' E 005°21'4 8.5
2018-Jun-21 13:30N 53°31' E 005°14'4 8.9
2018-Jun-21 13:01N 53°29' E 005°07'5 9.1
2018-Jun-21 12:30N 53°28' E 004°60'5 9.0
2018-Jun-21 12:00N 53°26' E 004°53'5 9.2
2018-Jun-21 11:31N 53°25' E 004°45'4 8.5
2018-Jun-21 11:01N 53°21' E 004°41'4 8.4
2018-Jun-21 10:31N 53°17' E 004°39'6 9.0
2018-Jun-21 09:52N 53°12' E 004°35'3 9.0
2018-Jun-21 09:30N 53°09' E 004°32'7 8.8
2018-Jun-21 08:40N 53°03' E 004°26'10 8.0
2018-Jun-21 07:27N 52°54' E 004°18'3 5.8
2018-Jun-21 06:59N 52°52' E 004°17'21 6.5
2018-Jun-21 03:43N 52°36' E 003°54'2 6.1
2018-Jun-21 03:21N 52°34' E 003°51'4 6.2
2018-Jun-21 02:46N 52°32' E 003°47'2 6.2
2018-Jun-21 02:25N 52°30' E 003°44'3 6.2
2018-Jun-21 01:59N 52°29' E 003°41'3 6.3
2018-Jun-21 01:30N 52°27' E 003°37'3 6.5
2018-Jun-21 01:00N 52°24' E 003°33'4 6.9
2018-Jun-21 00:21N 52°21' E 003°28'3 7.1
2018-Jun-20 23:54N 52°18' E 003°27'3 8.3
2018-Jun-20 23:30N 52°15' E 003°26'6 9.9
2018-Jun-20 22:55N 52°09' E 003°26'410.2
2018-Jun-20 22:30N 52°05' E 003°25'510.3
2018-Jun-20 21:58N 51°59' E 003°24'510.6
2018-Jun-20 21:30N 51°54' E 003°23'610.8
2018-Jun-20 20:57N 51°49' E 003°18'511.1
2018-Jun-20 20:29N 51°44' E 003°14'510.9
2018-Jun-20 20:00N 51°39' E 003°12'610.8
2018-Jun-20 19:29N 51°34' E 003°10'611.6
2018-Jun-20 18:59N 51°29' E 003°04'510.4
2018-Jun-20 18:30N 51°24' E 003°04'3 5.9
2018-Jun-20 17:57N 51°22' E 003°07'1 2.1
2018-Jun-20 17:30N 51°22' E 003°08'3 5.6
2018-Jun-20 17:00N 51°21' E 003°12'0 0.9
2018-Jun-20 16:30N 51°20' E 003°12'0 0.0
2018-Jun-20 15:51N 51°20' E 003°12'0 0.0
2018-Jun-20 15:30N 51°20' E 003°12'0 0.0
2018-Jun-20 14:54N 51°20' E 003°12'0 0.0
2018-Jun-20 14:27N 51°20' E 003°12'0 0.0
2018-Jun-20 14:00N 51°20' E 003°12'0 0.0
2018-Jun-20 13:15N 51°20' E 003°12'0 0.0
2018-Jun-20 12:57N 51°20' E 003°12'0 0.0
2018-Jun-20 12:30N 51°20' E 003°12'0 0.0
2018-Jun-20 11:09N 51°20' E 003°12'0 0.0
2018-Jun-20 11:00N 51°20' E 003°12'0 0.0
2018-Jun-20 10:24N 51°20' E 003°12'0 0.0
2018-Jun-20 10:00N 51°20' E 003°12'0 0.0
2018-Jun-20 09:24N 51°20' E 003°12'0 0.0
2018-Jun-20 08:54N 51°20' E 003°12'0 0.0
2018-Jun-20 07:51N 51°20' E 003°12'0 0.0
2018-Jun-20 07:30N 51°20' E 003°12'0 0.0
2018-Jun-20 06:57N 51°20' E 003°12'0 0.0
2018-Jun-20 06:27N 51°20' E 003°12'0 0.0
2018-Jun-20 05:48N 51°20' E 003°12'0 0.0
2018-Jun-20 05:21N 51°20' E 003°12'0 0.0
2018-Jun-20 04:54N 51°20' E 003°12'0 0.0
2018-Jun-20 04:30N 51°20' E 003°12'0 0.0
2018-Jun-20 03:54N 51°20' E 003°12'0 0.0
2018-Jun-20 03:30N 51°20' E 003°12'0 0.0
2018-Jun-20 02:54N 51°20' E 003°12'0 0.0
2018-Jun-20 02:30N 51°20' E 003°12'0 0.0
2018-Jun-20 02:00N 51°20' E 003°12'0 0.0
2018-Jun-20 01:21N 51°20' E 003°12'0 0.0
2018-Jun-20 01:00N 51°20' E 003°12'0 0.0
2018-Jun-20 00:30N 51°20' E 003°12'0 0.0
2018-Jun-19 23:15N 51°20' E 003°12'0 0.0
2018-Jun-19 23:00N 51°20' E 003°12'0 0.0
2018-Jun-19 22:30N 51°20' E 003°12'0 0.0
2018-Jun-19 22:00N 51°20' E 003°12'0 0.0
2018-Jun-19 20:57N 51°20' E 003°12'0 0.0
2018-Jun-19 20:27N 51°20' E 003°12'0 0.0
2018-Jun-19 19:54N 51°20' E 003°12'0 0.0
2018-Jun-19 19:30N 51°20' E 003°12'0 0.0
2018-Jun-19 19:00N 51°20' E 003°12'0 0.2
2018-Jun-19 18:30N 51°20' E 003°12'3 6.2
2018-Jun-19 18:00N 51°21' E 003°07'0 0.6
2018-Jun-19 17:30N 51°22' E 003°07'0 0.4
2018-Jun-19 17:00N 51°22' E 003°07'0 0.7
2018-Jun-19 16:30N 51°22' E 003°07'4 8.5
2018-Jun-19 16:00N 51°21' E 003°01'4 9.0
2018-Jun-19 15:30N 51°19' E 002°54'4 7.6
2018-Jun-19 15:00N 51°15' E 002°54'2 4.1
2018-Jun-19 14:30N 51°14' E 002°56'0 0.5
2018-Jun-19 14:00N 51°13' E 002°56'1 1.4
2018-Jun-19 13:30N 51°13' E 002°57'1 2.8
2018-Jun-19 13:00N 51°13' E 002°59'0 0.0
2018-Jun-19 12:30N 51°13' E 002°59'0 0.0
2018-Jun-19 11:57N 51°13' E 002°59'0 0.0
2018-Jun-19 11:30N 51°13' E 002°59'0 0.0
2018-Jun-19 11:00N 51°13' E 002°59'0 0.0
2018-Jun-19 10:30N 51°13' E 002°59'0 0.0
2018-Jun-19 10:00N 51°13' E 002°59'0 0.0
2018-Jun-19 09:30N 51°13' E 002°59'0 0.0
2018-Jun-19 09:00N 51°13' E 002°59'0 0.0
2018-Jun-19 08:30N 51°13' E 002°59'0 0.0
2018-Jun-19 07:56N 51°13' E 002°59'0 0.0
2018-Jun-19 07:29N 51°13' E 002°59'0 0.0
2018-Jun-19 06:59N 51°13' E 002°59'  
Track history (hours):
 
Tides and Currents Weather Stations Pressure Air Temp Water Temp Dewpoint Dewpoint Depression Visibility Wind Speed Wind Dir Waves Ship Positions

Oceanographic research ship Belgica (Belgium)

Detailed information on ship capabilities available from University of Delaware's Ocean Information Center.

Last reported at 2018-Jun-23 14:56 UTC. Time now 2018-Jun-23 23:22 UTC.
Position N 55°33' E 015°14'.

Length 51 m; draft 4.7 m.

MMSI: 205218000.

Date/timePositionNaut miles runAvg speedWind from/ knotsBaromVisibWave heightAir tempDewpointWater temp
2018-Jun-23 14:56N 55°33' E 015°14'7 9.8
2018-Jun-23 14:11N 55°29' E 015°02'4 9.7
2018-Jun-23 13:44N 55°28' E 014°55'3 9.7
2018-Jun-23 13:28N 55°27' E 014°50'5 9.6
2018-Jun-23 12:58N 55°25' E 014°43'6 9.5
2018-Jun-23 12:23N 55°22' E 014°35'4 9.9
2018-Jun-23 11:59N 55°19' E 014°31'5 9.6
2018-Jun-23 11:29N 55°15' E 014°26'5 9.6
2018-Jun-23 10:57N 55°11' E 014°21'4 9.6
2018-Jun-23 10:30N 55°07' E 014°17'5 9.5
2018-Jun-23 10:00N 55°03' E 014°12'12 9.2
2018-Jun-23 08:44N 54°59' E 013°53'61 9.4
2018-Jun-23 02:13N 54°32' E 012°18'3 9.6
2018-Jun-23 01:55N 54°29' E 012°16'4 9.7
2018-Jun-23 01:29N 54°26' E 012°12'4 8.4
2018-Jun-23 01:00N 54°24' E 012°06'17 9.8
2018-Jun-22 23:19N 54°27' E 011°38'611.0
2018-Jun-22 22:45N 54°30' E 011°29'511.4
2018-Jun-22 22:20N 54°32' E 011°21'412.3
2018-Jun-22 22:00N 54°34' E 011°15'612.0
2018-Jun-22 21:30N 54°35' E 011°05'510.7
2018-Jun-22 21:00N 54°34' E 010°55'510.2
2018-Jun-22 20:30N 54°34' E 010°46'5 9.9
2018-Jun-22 20:00N 54°33' E 010°38'54 7.1
2018-Jun-22 12:27N 54°06' E 009°20'3 6.7
2018-Jun-22 11:59N 54°03' E 009°18'1 2.6
2018-Jun-22 11:30N 54°01' E 009°18'4 7.6
2018-Jun-22 11:00N 53°58' E 009°15'4 8.6
2018-Jun-22 10:30N 53°55' E 009°10'1 3.0
2018-Jun-22 10:00N 53°53' E 009°09'2 3.5
2018-Jun-22 09:30N 53°53' E 009°06'4 7.2
2018-Jun-22 09:00N 53°51' E 009°01'510.0
2018-Jun-22 08:30N 53°50' E 008°52'5 9.6
2018-Jun-22 08:00N 53°51' E 008°44'510.4
2018-Jun-22 07:30N 53°56' E 008°40'5 9.7
2018-Jun-22 06:57N 53°58' E 008°31'4 8.2
2018-Jun-22 06:30N 53°59' E 008°25'4 7.1
2018-Jun-22 06:00N 53°59' E 008°19'4 7.1
2018-Jun-22 05:30N 53°59' E 008°13'4 7.0
2018-Jun-22 05:00N 53°59' E 008°07'4 7.0
2018-Jun-22 04:29N 53°58' E 008°01'4 7.2
2018-Jun-22 04:00N 53°57' E 007°56'4 7.4
2018-Jun-22 03:29N 53°56' E 007°49'69 6.7
2018-Jun-21 17:13N 53°39' E 005°57'2 7.0
2018-Jun-21 17:00N 53°39' E 005°54'3 6.7
2018-Jun-21 16:31N 53°38' E 005°49'3 6.7
2018-Jun-21 16:00N 53°37' E 005°44'3 6.9
2018-Jun-21 15:30N 53°35' E 005°38'4 7.2
2018-Jun-21 14:57N 53°34' E 005°32'3 7.4
2018-Jun-21 14:29N 53°33' E 005°26'4 7.5
2018-Jun-21 14:00N 53°32' E 005°21'4 8.5
2018-Jun-21 13:30N 53°31' E 005°14'4 8.9
2018-Jun-21 13:01N 53°29' E 005°07'5 9.1
2018-Jun-21 12:30N 53°28' E 004°60'5 9.0
2018-Jun-21 12:00N 53°26' E 004°53'5 9.2
2018-Jun-21 11:31N 53°25' E 004°45'4 8.5
2018-Jun-21 11:01N 53°21' E 004°41'4 8.4
2018-Jun-21 10:31N 53°17' E 004°39'6 9.0
2018-Jun-21 09:52N 53°12' E 004°35'3 9.0
2018-Jun-21 09:30N 53°09' E 004°32'7 8.8
2018-Jun-21 08:40N 53°03' E 004°26'10 8.0
2018-Jun-21 07:27N 52°54' E 004°18'3 5.8
2018-Jun-21 06:59N 52°52' E 004°17'21 6.5
2018-Jun-21 03:43N 52°36' E 003°54'2 6.1
2018-Jun-21 03:21N 52°34' E 003°51'4 6.2
2018-Jun-21 02:46N 52°32' E 003°47'2 6.2
2018-Jun-21 02:25N 52°30' E 003°44'3 6.2
2018-Jun-21 01:59N 52°29' E 003°41'3 6.3
2018-Jun-21 01:30N 52°27' E 003°37'3 6.5
2018-Jun-21 01:00N 52°24' E 003°33'4 6.9
2018-Jun-21 00:21N 52°21' E 003°28'3 7.1
2018-Jun-20 23:54N 52°18' E 003°27'3 8.3
2018-Jun-20 23:30N 52°15' E 003°26'6 9.9
2018-Jun-20 22:55N 52°09' E 003°26'410.2
2018-Jun-20 22:30N 52°05' E 003°25'510.3
2018-Jun-20 21:58N 51°59' E 003°24'510.6
2018-Jun-20 21:30N 51°54' E 003°23'610.8
2018-Jun-20 20:57N 51°49' E 003°18'511.1
2018-Jun-20 20:29N 51°44' E 003°14'510.9
2018-Jun-20 20:00N 51°39' E 003°12'610.8
2018-Jun-20 19:29N 51°34' E 003°10'611.6
2018-Jun-20 18:59N 51°29' E 003°04'510.4
2018-Jun-20 18:30N 51°24' E 003°04'3 5.9
2018-Jun-20 17:57N 51°22' E 003°07'1 2.1
2018-Jun-20 17:30N 51°22' E 003°08'3 5.6
2018-Jun-20 17:00N 51°21' E 003°12'0 0.9
2018-Jun-20 16:30N 51°20' E 003°12'0 0.0
2018-Jun-20 15:51N 51°20' E 003°12'0 0.0
2018-Jun-20 15:30N 51°20' E 003°12'0 0.0
2018-Jun-20 14:54N 51°20' E 003°12'0 0.0
2018-Jun-20 14:27N 51°20' E 003°12'0 0.0
2018-Jun-20 14:00N 51°20' E 003°12'0 0.0
2018-Jun-20 13:15N 51°20' E 003°12'0 0.0
2018-Jun-20 12:57N 51°20' E 003°12'0 0.0
2018-Jun-20 12:30N 51°20' E 003°12'0 0.0
2018-Jun-20 11:09N 51°20' E 003°12'0 0.0
2018-Jun-20 11:00N 51°20' E 003°12'0 0.0
2018-Jun-20 10:24N 51°20' E 003°12'0 0.0
2018-Jun-20 10:00N 51°20' E 003°12'0 0.0
2018-Jun-20 09:24N 51°20' E 003°12'0 0.0
2018-Jun-20 08:54N 51°20' E 003°12'0 0.0
2018-Jun-20 07:51N 51°20' E 003°12'0 0.0
2018-Jun-20 07:30N 51°20' E 003°12'0 0.0
2018-Jun-20 06:57N 51°20' E 003°12'0 0.0
2018-Jun-20 06:27N 51°20' E 003°12'0 0.0
2018-Jun-20 05:48N 51°20' E 003°12'0 0.0
2018-Jun-20 05:21N 51°20' E 003°12'0 0.0
2018-Jun-20 04:54N 51°20' E 003°12'0 0.0
2018-Jun-20 04:30N 51°20' E 003°12'0 0.0
2018-Jun-20 03:54N 51°20' E 003°12'0 0.0
2018-Jun-20 03:30N 51°20' E 003°12'0 0.0
2018-Jun-20 02:54N 51°20' E 003°12'0 0.0
2018-Jun-20 02:30N 51°20' E 003°12'0 0.0
2018-Jun-20 02:00N 51°20' E 003°12'0 0.0
2018-Jun-20 01:21N 51°20' E 003°12'0 0.0
2018-Jun-20 01:00N 51°20' E 003°12'0 0.0
2018-Jun-20 00:30N 51°20' E 003°12'0 0.0
2018-Jun-19 23:15N 51°20' E 003°12'0 0.0
2018-Jun-19 23:00N 51°20' E 003°12'0 0.0
2018-Jun-19 22:30N 51°20' E 003°12'0 0.0
2018-Jun-19 22:00N 51°20' E 003°12'0 0.0
2018-Jun-19 20:57N 51°20' E 003°12'0 0.0
2018-Jun-19 20:27N 51°20' E 003°12'0 0.0
2018-Jun-19 19:54N 51°20' E 003°12'0 0.0
2018-Jun-19 19:30N 51°20' E 003°12'0 0.0
2018-Jun-19 19:00N 51°20' E 003°12'0 0.2
2018-Jun-19 18:30N 51°20' E 003°12'3 6.2
2018-Jun-19 18:00N 51°21' E 003°07'0 0.6
2018-Jun-19 17:30N 51°22' E 003°07'0 0.4
2018-Jun-19 17:00N 51°22' E 003°07'0 0.7
2018-Jun-19 16:30N 51°22' E 003°07'4 8.5
2018-Jun-19 16:00N 51°21' E 003°01'4 9.0
2018-Jun-19 15:30N 51°19' E 002°54'4 7.6
2018-Jun-19 15:00N 51°15' E 002°54'2 4.1
2018-Jun-19 14:30N 51°14' E 002°56'0 0.5
2018-Jun-19 14:00N 51°13' E 002°56'1 1.4
2018-Jun-19 13:30N 51°13' E 002°57'1 2.8
2018-Jun-19 13:00N 51°13' E 002°59'0 0.0
2018-Jun-19 12:30N 51°13' E 002°59'0 0.0
2018-Jun-19 11:57N 51°13' E 002°59'0 0.0
2018-Jun-19 11:30N 51°13' E 002°59'0 0.0
2018-Jun-19 11:00N 51°13' E 002°59'0 0.0
2018-Jun-19 10:30N 51°13' E 002°59'0 0.0
2018-Jun-19 10:00N 51°13' E 002°59'0 0.0
2018-Jun-19 09:30N 51°13' E 002°59'0 0.0
2018-Jun-19 09:00N 51°13' E 002°59'0 0.0
2018-Jun-19 08:30N 51°13' E 002°59'0 0.0
2018-Jun-19 07:56N 51°13' E 002°59'0 0.0
2018-Jun-19 07:29N 51°13' E 002°59'0 0.0
2018-Jun-19 06:59N 51°13' E 002°59'  

Dump ship's entire track history